Tracking 17558 objects as of 9-February-2016
HD Live streaming from Space Station
objects crossing your sky now

BEESAT

Track BEESAT now!
10-day predictions
BEESAT is classified as:


NORAD ID: 35933
Int'l Code: 2009-051C
Perigee: 709.8 km
Apogee: 717.6 km
Inclination: 98.4 °
Period: 98.9 minutes
Semi major axis: 7084 km
RCS: 0.033 m2 (small)
Launch date: September 23, 2009
Source: Germany (GER)
Launch site: SIRHARIKOTA (SRI)

BEESAT is a a cubesat satellite built by student teams to test new attitude control systems.
Your satellite tracking list
Your tracking list is empty





NASA's NSSDC Master Catalog

Two Line Element Set (TLE):
1 35933U 09051C   16039.88289838  .00000567  00000-0  14011-3 0  9999
2 35933  98.4322 166.5981 0005517 356.2251   3.8903 14.5586224338498
Source of the keplerian elements: AFSPC

N2YO: 960